SZ-17 MODULE (59624 NORAD) Tracking and Keplerian Element Data

This shows tracking and keplerian element data for the satellite.

Feedback or suggestion? Click here.




ElementValue
Catalog59624
NameSZ-17 MODULE
Epoch Orbit604
Epoch Day159.64823149
Epoch Year2024
RAAN141.4262
Inclination41.4757
Eccentricity0.0006136
Argument of Perigee203.9536
Mean Anonmoly156.102
Mean Motion15.64723291
Decay Rate0.00039794
L11 59624U 23164C 24159.64823149 .00039794 00000+0 39911-3 0 9997
L22 59624 41.4757 141.4262 0006136 203.9536 156.1020 15.64723291 6045



Live tracking and technical data element details for SZ-17 MODULE (NORAD 59624). SZ-17 MODULE can be tracked NOW for your location showing map with azimuth and elevation plus other details from your city location.







IsCatalogInMostPopularTable: catalog: 59624, numindb: 20
Update: records affected: 1



GetName: 59624 SZ-17 MODULE

Hit Count: updated at: Fri, 14 Jun 2024 17:54:20 GMT